CREW DRAGON 9 (61447 NORAD) Tracking and Keplerian Element Data

This shows tracking and keplerian element data for the satellite.

Feedback or suggestion? Click here.




ElementValue
Catalog61447
NameCREW DRAGON 9
Epoch Orbit199
Epoch Day286.82176872
Epoch Year2024
RAAN92.7424
Inclination51.638
Eccentricity0.0009179
Argument of Perigee63.7262
Mean Anonmoly296.4669
Mean Motion15.49763544
Decay Rate0.00028824
L11 61447U 24178A 24286.82176872 .00028824 00000+0 51475-3 0 9995
L22 61447 51.6380 92.7424 0009179 63.7262 296.4669 15.49763544 1996



Live tracking and technical data element details for CREW DRAGON 9 (NORAD 61447). CREW DRAGON 9 can be tracked NOW for your location showing map with azimuth and elevation plus other details from your city location.







IsCatalogInMostPopularTable: catalog: 61447, numindb: 33
Update: records affected: 1



GetName: 61447 CREW DRAGON 9

Hit Count: updated at: Fri, 06 Dec 2024 11:05:47 GMT